EHI
0 0 0 0 0 0 0 0 0 0 0 0 0 0 0 0 0 0 0 0 0 0 0 0 0 0 0 0 0 0 0 0 0 0 0 0 0 0 0 0 0 0 0
0 0 0 0 0 0 0 0 0 0 0 0 0 0 0 0 0 0 0 0 0 0 0 0 0 0 0 0 0 0 0 0 0 0 0 0 0 0 0 0 0 0 0
0 0 0 0 0 0 0 0 0 0 0 0 0 0 0 0 0 0 0 0 0 0 0 0 0 0 0 0 0 0 0 0 0 0 0 0 0 0 0 0 0 0 0
0 0 0 0 0 0 0 0 0 0 0 0 0 0 0 0 0 0 0 0 0 0 0 0 0 0 0 0 0 0 0 0 0 0 0 0 0 0 0 0 0 0 0
0 0 0 0 0 0 0 0 0 0 0 0 0 0 0 0 0 0 0 0 0 0 0 0 0 0 0 0 0 0 0 0 0 0 0 0 0 0 0 0 0 0 0
0 0 0 0 0 0 0 0 0 0 0 0 0 0 0 0 0 0 0 0 0 0 0 0 0 0 0 0 0 0 0 0 0 0 0 0 0 0 0 0 0 0 0
0 0 0 0 0 0 0 0 0 0 0 0 0 0 0 0 0 0 0 0 0 0 0 0 0 0 0 0 0 0 0 0 0 0 0 0 0 0 0 0 0 0 0
0 0 0 0 0 0 0 0 0 0 0 0 0 0 0 0 0 0 0 0 0 0 0 0 0 0 0 0 0 0 0 0 0 0 0 0 0 0 0 0 0 0 0
0 0 0 0 0 0 0 0 0 0 0 0 0 0 0 0 0 0 0 0 0 0 0 0 0 0 0 0 0 0 0 0 0 0 0 0 0 0 0 0 0 0 0
0 0 0 0 0 0 0 0 0 0 0 0 0 0 0 0 0 0 0 0 0 0 0 0 0 0 0 0 0 0 0 0 0 0 0 0 0 0 0 0 0 0 0
0 0 0 0 0 0 0 0 0 0 0 0 0 0 0 0 0 0 0 0 0 0 0 0 0 0 0 0 0 0 0 0 0 0 0 0 0 0 0 0 0 0 0
0 0 0 0 0 0 0 0 0 0 0 0 0 0 0 0 0 0 0 0 0 0 0 0 0 0 0 0 0 0 0 0 0 0 0 0 0 0 0 0 0 0 0
0 0 0 0 0 0 0 0 0 0 0 0 0 0 0 0 0 0 0 0 0 0 0 0 0 0 0 0 0 0 0 0 0 0 0 0 0 0 0 0 0 0 0
0 0 0 0 0 0 0 0 0 0 0 0 0 0 0 0 0 0 0 0 0 0 0 0 0 0 0 0 0 0 0 0 0 0 0 0 0 0 0 0 0 0 0
0 0 0 0 0 0 0 0 0 0 0 0 0 0 0 0 0 0 0 0 0 0 0 0 0 0 0 0 0 0 0 0 0 0 0 0 0 0 0 0 0 0 0
0 0 0 0 0 0 0 0 0 0 0 0 0 0 0 0 0 0 0 0 0 0 0 0 0 0 0 0 0 0 0 0 0 0 0 0 0 0 0 0 0 0 0
0 0 0 0 0 0 0 0 0 0 0 0 0 0 0 0 0 0 0 0 0 0 0 0 0 0 0 0 0 0 0 0 0 0 0 0 0 0 0 0 0 0 0
0 0 0 0 0 0 0 0 0 0 0 0 0 0 0 0 0 0 0 0 0 0 0 0 0 0 0 0 0 0 0 0 0 0 0 0 0 0 0 0 0 0 0
0 0 0 0 0 0 0 0 0 0 0 0 0 0 0 0 0 0 0 0 0 0 0 0 0 0 0 0 0 0 0 0 0 0 0 0 0 0 0 0 0 0 0
0 0 0 0 0 0 0 0 0 0 0 0 0 0 0 0 0 0 0 0 0 0 0 0 0 0 0 0 0 0 0 0 0 0 0 0 0 0 0 0 0 0 0
0 0 0 0 0 0 0 0 0 0 0 0 0 0 0 0 0 0 0 0 0 0 0 0 0 0 0 0 0 0 0 0 0 0 0 0 0 0 0 0 0 0 0
0 0 0 0 0 0 0 0 0 0 0 0 0 0 0 0 0 0 0 0 0 0 0 0 0 0 0 0 0 0 0 0 0 0 0 0 0 0 0 0 0 0 0
0 0 0 0 0 0 0 0 0 0 0 0 0 0 0 0 0 0 0 0 0 0 0 0 0 0 0 0 0 0 0 0 0 0 0 0 0 0 0 0 0 0 0
0 0 0 0 0 0 0 0 0 0 0 0 0 0 0 0 0 0 0 0 0 0 0 0 0 0 0 0 0 0 0 0 0 0 0 0 0 0 0 0 0 0 0
0 0 0 0 0 0 0 0 0 0 0 0 0 0 0 0 0 0 0 0 0 0 0 0 0 0 0 0 0 0 0 0 0 0 0 0 0 0 0 0 0 0 0
0 0 0 0 0 0 0 0 0 0 0 0 0 0 0 0 0 0 0 0 0 0 0 0 0 0 0 0 0 0 0 0 0 0 0 0 0 0 0 0 0 0 0
Wind_Speed
3 3 3 3 3 4 4 4 4 4 5 5 5 6 6 7 7 6 7 7 7 7 7 7 7 6 4 4 4 3 2 1 2 1 1 2 2 2 2 2 1 1 2
3 3 3 3 4 4 4 4 4 5 5 5 5 6 7 7 7 7 7 7 8 8 7 7 7 5 6 5 4 5 4 3 2 1 1 2 3 2 3 3 3 3 3
3 4 4 4 4 4 4 4 5 5 5 6 6 7 7 7 7 7 7 8 8 8 8 8 7 7 6 5 5 5 3 3 2 1 2 2 2 2 2 3 3 3 3
4 4 4 3 4 4 4 5 5 5 5 6 6 6 6 7 7 7 7 8 8 8 8 7 7 6 5 5 5 5 4 4 3 2 2 2 2 2 2 2 2 3 3
4 4 4 3 4 4 5 5 5 6 6 6 6 6 6 6 6 6 6 7 7 7 7 7 8 9 10 7 5 4 4 4 3 3 2 2 3 3 3 2 2 2 2
4 4 4 4 4 4 5 5 5 6 6 6 7 6 7 6 11 12 8 6 6 6 6 6 6 8 11 13 13 11 9 5 3 2 2 3 3 3 2 2 2 2 1
5 4 4 4 5 5 5 5 5 5 5 6 6 6 6 8 12 12 12 7 6 5 5 4 4 6 7 5 8 11 11 13 10 3 3 2 2 2 2 2 2 1 1
5 5 5 5 5 5 5 5 5 4 4 4 5 5 4 6 10 11 11 6 5 4 4 4 4 4 4 4 4 5 5 5 6 4 2 1 1 1 0 0 0 1 2
5 5 5 5 5 5 5 4 4 4 3 3 3 4 4 4 7 8 7 3 3 4 3 3 3 3 7 7 4 3 4 4 6 7 6 5 6 4 1 1 1 1 2
6 5 5 5 5 5 5 4 3 3 3 3 2 2 2 3 4 5 6 2 2 2 2 4 6 5 7 6 3 2 2 2 2 4 5 6 5 5 5 1 2 2 1
6 5 5 5 5 5 4 3 3 3 2 1 1 1 2 2 4 3 3 2 1 1 1 2 3 8 8 7 4 1 3 1 1 2 2 3 2 2 2 2 1 3 3
6 6 5 5 4 4 4 3 3 3 2 1 1 2 2 2 3 3 3 1 2 1 1 2 3 8 8 7 4 4 5 4 1 1 2 2 2 2 2 2 3 3 4
6 6 5 5 4 4 4 4 3 3 3 2 2 2 2 2 2 4 3 3 3 0 2 4 6 7 6 4 5 6 4 2 1 1 2 2 2 3 3 3 3 3 4
7 6 6 6 5 4 4 4 4 4 4 3 3 3 2 2 2 2 2 2 3 3 2 4 5 6 4 4 4 3 2 2 2 2 2 2 2 2 2 2 2 3 3
7 7 6 6 5 5 5 5 5 5 5 5 4 3 3 3 4 5 3 3 3 3 2 1 1 1 2 2 2 2 2 2 2 2 2 3 3 3 3 2 2 3 3
8 8 6 6 5 5 4 4 8 8 9 10 8 6 5 6 6 6 6 6 7 6 1 1 2 2 3 3 3 3 3 3 3 2 3 3 4 4 4 3 3 4 6
9 8 7 6 6 6 5 5 4 5 8 9 9 10 9 8 8 7 7 7 7 6 1 2 3 3 3 3 3 3 3 3 3 3 4 4 4 4 4 5 5 5 6
10 10 9 7 7 6 6 6 5 4 3 4 6 9 10 10 9 8 8 5 3 2 2 3 4 4 4 4 4 4 4 4 4 4 4 5 4 4 5 5 5 6 7
9 7 7 6 6 6 6 6 5 5 5 4 3 4 8 8 9 9 7 3 3 4 4 4 4 4 4 4 4 4 5 5 5 4 5 5 5 5 6 6 6 11 10
8 11 10 7 6 6 6 6 6 6 5 5 5 4 3 3 3 3 3 3 4 4 4 5 5 5 5 5 5 4 5 5 6 5 6 6 5 6 7 8 8 8 8
6 7 12 8 7 7 7 7 6 6 6 5 5 5 8 5 5 5 4 5 5 5 5 5 5 5 5 5 5 5 6 6 6 6 6 6 6 6 7 8 9 9 9
5 5 6 7 6 6 6 6 6 6 6 6 4 5 10 6 4 5 5 5 5 5 5 5 5 5 5 5 5 5 6 7 7 7 7 7 7 8 8 8 9 9 10
4 5 5 5 6 8 7 6 6 6 6 6 5 4 5 5 5 5 6 5 5 5 4 5 5 6 5 5 6 6 7 8 8 7 8 8 8 8 8 10 11 12 12
4 5 5 5 5 6 6 6 6 6 6 5 5 5 5 5 5 6 5 5 4 5 5 5 6 8 10 7 6 6 8 9 8 8 10 10 10 10 10 11 12 14 14
3 4 4 5 5 5 6 6 5 6 5 5 5 5 5 5 5 5 5 5 5 5 6 6 6 7 10 11 10 9 13 18 17 12 11 11 13 13 13 14 14 14 15
3 3 4 4 4 5 5 5 5 5 5 5 5 5 5 5 5 5 5 4 5 5 6 6 7 9 10 9 11 14 18 19 20 21 14 11 13 13 13 13 16 16 17
Wind_Direction
90 79 70 54 50 52 52 42 35 33 34 38 38 40 39 35 32 42 45 43 51 47 41 47 41 32 33 24 19 18 9 337 280 354 43 352 340 342 353 9 16 277 268
104 91 79 67 63 62 56 48 47 48 45 46 47 50 49 45 42 48 53 52 55 53 47 47 39 37 39 31 30 27 18 8 347 325 14 5 3 5 19 34 38 42 40
110 99 87 76 73 69 63 58 56 57 55 53 55 56 54 52 52 54 61 62 60 56 51 50 42 43 42 35 35 30 18 17 17 40 24 21 8 15 30 37 43 34 37
121 114 102 92 88 84 76 70 66 65 63 58 58 62 64 62 60 59 64 65 63 57 51 49 44 45 47 43 38 26 21 26 26 38 36 29 24 14 32 32 36 32 28
131 125 117 111 103 97 88 79 73 68 66 61 62 61 64 68 67 66 63 66 65 61 51 44 44 47 51 55 53 36 33 34 31 34 30 26 25 18 20 15 31 26 29
140 136 132 126 117 108 100 92 82 74 67 63 60 59 59 66 75 78 77 64 63 60 50 36 36 40 43 45 49 47 47 46 38 36 30 34 20 12 11 19 27 28 360
147 142 142 137 123 113 108 98 91 82 73 66 57 57 58 68 77 79 79 73 65 57 50 39 35 34 47 38 41 42 38 43 51 67 55 32 13 355 13 20 26 30 306
149 148 147 141 129 121 111 103 96 86 79 73 60 52 51 62 77 81 82 73 65 53 44 39 33 11 36 57 51 38 28 26 39 52 73 9 320 296 144 140 136 2 300
157 154 152 145 138 131 122 114 104 98 88 78 66 53 45 35 67 88 90 75 62 39 22 22 25 4 17 46 59 38 18 1 14 24 22 11 4 354 5 106 70 36 320
163 155 148 144 142 137 133 124 111 113 113 99 71 49 33 3 37 88 105 97 69 32 10 4 6 6 5 25 83 41 354 328 348 356 1 360 1 360 22 104 164 163 224
150 147 146 145 144 139 135 129 128 128 122 107 69 354 342 334 353 26 103 127 123 58 6 345 332 345 351 355 14 318 312 17 34 350 338 339 352 3 12 13 151 169 185
149 152 153 152 154 148 148 148 150 154 161 190 243 285 286 303 322 328 350 39 138 149 304 296 303 332 345 350 351 331 359 45 23 344 336 333 332 323 318 318 299 246 221
158 162 162 161 162 159 167 173 176 183 194 214 222 241 260 261 293 312 329 340 343 233 260 298 321 339 354 351 336 347 19 25 337 320 310 292 271 268 283 300 297 277 263
172 175 172 175 178 179 185 188 191 195 203 216 221 231 243 258 263 265 277 300 306 310 305 309 326 338 344 336 341 354 349 300 293 278 280 278 281 278 281 283 292 308 303
181 185 186 189 188 193 202 206 204 208 199 202 211 211 212 239 246 240 232 226 232 247 252 205 313 320 322 318 311 304 303 310 313 291 284 290 292 289 286 285 276 287 278
188 193 194 192 193 196 202 224 236 227 231 231 218 207 220 233 251 259 268 277 285 287 279 199 262 272 277 282 288 292 288 282 275 270 273 273 279 282 284 278 264 263 270
196 194 193 194 195 196 198 204 224 238 240 240 236 233 234 241 250 258 265 275 282 289 252 234 250 257 259 262 262 259 262 263 261 261 261 262 262 266 268 270 266 263 265
200 198 195 196 195 196 199 202 201 205 221 242 244 244 246 246 249 254 259 270 276 267 226 239 246 249 250 251 253 255 260 265 259 256 255 255 253 255 262 263 260 257 266
200 199 196 194 195 198 197 197 201 208 216 222 225 248 246 249 253 253 252 221 228 242 241 240 240 242 245 246 248 250 252 258 259 256 255 254 251 249 257 259 260 267 270
205 203 192 192 193 196 196 199 204 209 216 219 224 224 211 210 223 238 230 218 229 239 240 242 243 241 242 244 247 250 253 255 257 254 255 254 250 246 255 260 260 262 263
199 200 198 196 199 199 199 203 205 206 213 220 225 220 211 209 222 226 227 228 231 237 238 240 242 243 243 243 244 247 252 256 254 254 256 255 252 253 255 257 260 261 265
192 194 194 199 200 202 203 202 201 206 214 222 226 230 238 225 217 226 230 235 232 232 232 234 241 240 238 238 240 244 251 256 256 252 253 254 253 255 257 258 260 261 263
189 192 197 201 199 208 208 203 203 209 214 218 218 217 220 223 227 230 235 236 234 235 234 234 243 250 246 240 235 234 245 253 253 251 256 260 259 258 257 258 259 261 263
194 198 203 204 202 206 207 206 207 211 214 217 219 222 223 225 230 235 234 234 236 239 239 238 243 250 254 254 248 242 244 252 253 253 251 255 259 260 260 260 261 261 263
202 206 209 208 208 210 211 209 208 211 215 218 221 226 227 227 230 235 235 236 240 246 249 246 247 252 257 257 256 255 260 266 267 262 253 252 255 256 258 261 262 264 264
212 214 216 213 213 213 213 212 212 213 217 221 224 226 228 231 234 237 236 237 242 247 252 252 250 254 260 263 264 267 273 277 278 278 275 269 266 266 264 266 267 266 268